Vorticity
15 13 10 9 11 10 9 8 8 6 1 -4 -2 3 4 4 5 6 6 5 5 4 4 5 5 4 4 3 3 2 2 2 2 2 2 3 3 4 5 6 8 8 7 7 7 8 9 9 9 9 9 8 8 7 7 7 8 7 7 8 8 9 10 11 12 11 11 10 10 10 9 9 9 8 9 9 9 8 7 9 19 34 35 22 17
12 12 8 8 10 10 9 8 7 4 -2 -6 -3 0 3 5 5 6 7 6 6 5 5 5 5 5 5 4 3 2 2 3 3 3 3 3 4 6 8 9 9 9 9 9 9 9 9 9 9 9 9 9 8 7 7 7 8 8 8 9 8 9 9 10 11 11 10 10 9 9 9 10 10 8 9 9 9 8 9 12 22 34 30 20 17
12 10 7 7 10 11 10 8 5 -0 -5 -6 -4 -2 1 4 5 6 7 6 6 5 5 6 6 6 5 3 3 3 3 4 5 5 5 5 6 8 9 9 10 10 10 10 10 10 9 9 8 9 8 8 8 7 7 7 7 7 8 8 9 10 10 10 11 10 10 10 9 9 8 8 9 10 10 9 8 7 11 15 22 34 28 17 19
12 9 7 9 11 11 9 6 4 -1 -4 -4 -4 -3 1 4 5 5 6 5 5 5 5 5 5 5 4 4 4 5 6 7 8 8 7 7 7 8 8 8 9 9 9 9 9 9 8 8 8 8 8 8 8 8 7 7 6 7 8 8 9 10 11 11 10 11 11 10 10 9 9 8 7 9 10 9 9 8 12 17 23 32 26 15 17
13 10 9 10 8 8 7 7 5 3 1 -2 -3 -1 3 5 5 6 6 6 5 4 5 5 4 4 3 4 5 7 8 8 8 8 8 8 8 8 8 8 8 8 8 8 7 8 8 8 8 8 8 8 8 8 7 7 6 6 7 8 9 10 10 10 10 11 10 9 10 9 9 9 8 7 8 8 9 11 13 20 26 28 22 15 15
11 10 10 7 5 5 6 8 8 6 2 -2 -1 2 4 5 5 6 5 5 5 5 5 4 4 4 5 6 7 7 7 6 6 7 7 8 8 8 8 8 9 8 8 8 8 8 8 8 8 8 8 8 7 8 7 7 7 6 7 7 8 9 9 10 11 10 10 10 10 9 8 9 10 9 9 8 9 13 16 21 27 25 18 15 15
10 9 8 4 4 5 6 8 6 4 1 1 3 5 5 6 6 5 4 4 5 5 5 6 7 8 9 9 9 8 8 8 8 8 8 8 8 9 8 8 8 8 7 7 6 6 6 6 6 5 6 6 6 6 6 6 6 6 7 7 8 8 9 10 10 9 10 10 8 8 9 9 10 10 8 9 9 13 19 22 26 24 16 14 15
8 7 5 4 5 6 6 5 3 2 3 4 6 6 6 6 6 5 5 4 4 4 6 8 9 9 9 9 9 9 9 9 9 9 9 9 8 7 7 7 7 7 7 7 7 7 7 7 6 5 5 4 4 4 4 5 5 6 6 6 7 8 9 9 9 10 9 9 9 7 9 9 8 10 8 9 10 12 19 24 25 21 14 14 14
6 4 4 6 6 5 3 1 3 4 5 6 6 6 6 5 5 4 5 6 7 7 7 7 7 7 8 8 8 9 9 9 9 9 8 8 8 7 7 7 8 9 9 10 11 12 13 12 12 12 12 11 10 9 8 6 4 5 5 6 7 7 9 10 9 10 9 8 10 8 8 8 7 9 8 9 11 12 20 26 23 17 14 15 14
5 5 6 8 5 3 2 3 5 6 6 7 6 6 5 5 7 7 8 9 9 8 7 7 8 8 7 7 8 9 9 9 8 8 8 8 8 9 9 9 10 10 10 10 10 10 11 10 11 12 13 13 14 14 14 13 11 8 7 6 7 8 9 11 9 9 10 9 9 9 8 8 7 8 8 9 11 10 21 28 20 14 14 16 16
7 7 7 6 4 4 6 7 7 7 7 6 5 6 7 9 11 11 10 8 8 8 8 9 9 9 9 9 9 9 8 9 9 9 9 9 10 10 10 10 10 10 10 10 10 10 10 9 10 10 10 11 11 12 12 13 15 14 13 9 8 10 10 11 10 9 10 9 9 9 8 8 7 8 7 7 10 10 20 30 19 13 13 14 16
8 8 6 5 5 7 8 8 8 7 7 6 7 9 9 10 8 5 6 6 8 8 8 10 10 10 11 9 9 9 9 9 9 9 9 10 10 10 10 10 11 12 12 13 13 13 13 12 13 11 11 12 11 12 11 11 12 12 15 14 12 13 11 11 10 9 10 9 9 9 7 9 7 9 8 6 10 10 20 30 19 12 14 12 13
7 5 4 5 6 7 7 7 6 5 5 6 8 7 6 5 4 4 5 6 7 7 8 9 8 9 9 9 10 9 9 9 9 9 9 10 10 11 12 12 13 14 14 15 13 13 14 14 16 16 16 17 16 17 17 16 16 13 14 15 14 14 13 12 10 9 10 8 9 9 7 9 8 9 9 7 10 10 19 27 17 13 15 11 12
6 3 5 7 7 7 6 5 5 5 7 7 6 6 6 6 7 8 8 8 9 9 9 8 7 9 8 9 10 9 10 10 9 10 9 10 11 12 13 13 14 15 14 15 14 15 17 17 19 21 21 22 22 21 22 22 22 21 18 16 16 16 14 13 10 9 10 9 9 9 7 9 8 9 10 9 10 11 21 25 14 15 17 10 12
4 6 8 7 6 7 6 7 8 8 8 7 7 8 9 9 10 10 10 10 9 9 9 9 8 9 8 9 10 10 12 11 12 13 13 14 14 12 14 13 12 13 13 16 18 20 23 23 23 22 21 20 19 19 19 20 22 24 24 20 17 17 14 13 11 9 9 9 8 8 8 9 10 10 9 9 11 12 21 23 13 16 18 10 10
7 8 7 6 8 10 9 10 9 8 8 8 9 10 9 10 10 9 9 9 9 9 8 8 8 8 8 8 9 9 10 10 10 12 12 15 15 14 14 13 13 15 16 20 23 23 23 22 21 19 19 18 17 18 17 17 19 22 25 24 19 17 15 13 11 9 9 9 8 8 8 9 10 10 9 10 11 13 21 21 13 17 18 10 10
8 8 9 13 14 11 9 9 8 8 9 9 9 9 9 9 8 8 8 8 8 8 7 8 9 9 9 8 9 8 7 8 10 11 13 13 12 12 12 12 13 14 17 21 21 20 18 17 18 21 23 23 22 22 21 19 18 20 24 24 19 16 16 14 11 10 9 8 8 8 8 9 9 9 10 11 10 14 21 18 12 18 17 9 9
11 13 16 15 9 6 7 8 7 7 8 8 8 8 8 8 8 8 8 8 8 8 8 9 9 9 10 9 9 9 10 12 12 13 13 10 9 10 10 11 12 13 16 18 17 16 14 15 21 24 25 26 28 30 29 26 22 21 24 24 20 16 16 14 11 10 10 8 8 8 9 9 9 9 9 11 12 14 18 15 13 19 17 10 9
15 13 10 6 4 7 8 6 6 6 7 8 8 8 8 7 8 8 8 9 9 9 9 9 9 10 11 11 11 11 12 12 11 11 11 10 12 13 13 15 15 17 18 17 17 15 15 19 22 20 21 29 39 43 42 38 30 25 25 24 20 16 16 15 11 10 10 9 8 8 10 9 9 8 8 12 15 13 14 14 16 20 15 11 11
8 6 4 5 7 8 5 4 6 6 8 9 8 9 8 7 8 8 8 9 9 9 9 9 10 10 10 12 11 11 12 11 11 13 12 14 15 14 15 15 15 18 16 16 17 13 16 20 16 16 27 42 51 52 51 48 36 27 25 23 19 16 16 15 11 10 10 9 8 8 9 9 8 8 9 14 14 9 11 15 16 19 15 9 10
7 8 7 7 6 4 3 5 6 8 9 10 9 9 8 8 9 8 9 9 8 9 9 10 12 11 11 12 11 11 12 11 13 13 14 15 13 12 14 12 13 14 13 15 14 11 16 16 12 20 33 46 52 50 52 51 34 22 23 23 20 16 16 15 12 11 11 9 9 9 9 10 8 8 12 15 11 6 11 18 16 17 16 10 9
9 7 4 4 4 3 5 7 8 10 10 9 9 9 9 9 9 9 9 10 10 10 10 11 12 11 12 12 12 12 12 12 13 13 12 12 9 11 12 12 14 12 13 16 10 11 17 13 17 27 28 37 47 47 57 52 25 16 22 22 21 17 16 16 12 11 12 10 9 9 10 10 8 9 14 14 9 6 13 18 17 17 15 10 9
3 2 2 4 5 6 8 10 11 11 10 9 9 9 9 10 10 10 10 10 10 10 11 13 12 12 13 12 12 12 12 13 13 11 10 8 8 12 13 13 14 11 13 15 9 13 17 14 23 27 21 31 41 48 64 49 18 16 23 22 23 19 16 16 13 11 13 12 9 9 11 10 8 9 13 13 7 7 15 18 17 16 14 10 9
3 4 5 6 8 9 11 11 10 9 9 9 9 9 9 10 9 10 10 9 10 11 12 13 12 12 13 13 13 13 12 12 10 8 8 8 11 14 13 13 12 11 14 13 10 15 17 19 26 22 20 29 34 52 67 40 13 14 15 19 25 20 16 17 14 14 14 11 9 10 13 12 9 9 11 12 9 8 15 18 16 16 14 11 8
5 7 8 9 10 10 10 10 9 9 9 9 9 9 9 9 9 10 11 11 12 13 13 13 13 14 14 14 13 11 12 11 10 10 9 10 14 14 13 12 10 12 14 11 11 17 19 21 22 21 25 27 34 59 59 25 10 11 11 24 29 20 18 17 15 17 13 10 9 10 14 13 9 8 10 13 12 10 15 18 16 16 14 11 8
9 10 10 9 9 9 9 9 9 9 9 9 9 9 9 10 10 12 13 14 13 13 14 13 14 15 13 13 12 11 13 12 11 11 10 11 15 13 11 10 8 11 12 9 13 19 20 19 19 24 28 27 41 59 42 18 16 11 9 22 24 19 20 17 17 18 12 10 10 10 15 14 8 6 9 13 12 10 16 18 16 16 14 11 8
9 9 8 9 9 9 9 8 8 8 8 10 10 11 13 13 14 15 14 14 13 13 14 14 14 14 12 12 12 12 13 11 10 10 10 11 14 14 11 8 8 9 8 10 16 20 20 17 20 28 26 28 46 45 26 21 19 8 10 19 18 19 20 17 18 16 12 12 10 11 17 14 9 6 6 13 13 10 16 19 15 16 14 10 8
7 8 8 9 8 7 8 7 8 10 11 13 13 14 16 16 17 17 15 14 14 14 15 14 13 12 11 11 12 12 12 10 10 10 9 12 14 14 11 8 8 8 6 11 18 21 19 17 23 29 24 29 40 28 21 27 14 3 16 22 19 20 19 17 18 14 14 13 9 15 20 12 7 7 7 13 14 11 16 18 15 15 14 9 8
8 7 6 5 5 6 8 9 11 13 13 13 14 15 16 16 16 16 15 15 15 14 14 14 13 12 11 11 12 11 10 9 10 10 9 12 15 15 13 9 8 9 7 11 20 22 17 17 25 28 23 27 30 22 27 30 9 2 14 16 16 19 17 18 17 14 16 12 11 19 17 8 9 10 10 14 13 11 16 17 14 14 13 9 8
5 5 5 6 8 10 11 12 13 14 14 14 16 18 18 17 17 17 15 14 13 13 14 13 12 11 10 11 10 9 10 10 10 10 9 11 14 16 15 10 9 10 8 12 22 23 16 17 25 28 23 24 26 26 33 26 6 4 13 13 15 18 16 17 15 15 15 11 15 19 10 8 14 13 13 14 11 13 17 16 15 14 12 8 7
9 11 13 15 16 16 16 17 17 17 18 19 20 21 20 19 19 16 14 14 13 13 13 12 11 11 9 10 9 9 10 10 9 10 10 11 14 16 16 12 10 11 9 12 23 24 15 16 25 26 23 23 24 29 33 20 4 6 13 15 16 16 16 18 15 15 15 13 17 15 6 9 16 13 13 12 9 15 18 14 14 14 11 9 7
15 16 16 17 17 18 19 21 21 21 21 21 21 22 20 19 18 15 13 14 13 12 12 11 10 10 9 9 9 9 9 9 9 10 11 11 14 17 17 14 11 11 9 13 24 25 15 16 24 25 23 23 24 27 27 16 7 9 13 14 15 15 16 19 17 15 14 16 16 11 6 12 15 12 11 10 10 16 18 14 14 13 11 9 7
14 15 15 15 16 17 19 20 22 22 21 21 21 21 20 18 16 14 13 13 12 11 11 11 10 10 9 9 10 9 8 8 9 11 11 12 15 17 19 16 11 11 10 13 25 27 15 14 23 25 21 23 25 24 20 13 9 11 13 14 16 17 16 17 17 15 14 15 12 9 11 15 15 11 9 9 12 16 16 14 13 13 11 8 6
15 14 14 14 15 17 19 20 21 22 21 21 21 19 18 16 13 12 11 11 11 10 10 11 11 10 9 9 9 9 8 9 10 11 12 13 15 18 20 18 12 10 11 14 25 27 15 12 21 24 21 22 23 20 17 13 10 10 13 16 19 19 17 15 15 13 13 13 11 12 16 16 13 10 9 10 13 16 16 15 13 12 11 8 6
17 16 16 16 16 17 19 19 20 21 20 19 19 16 14 12 10 9 9 9 10 10 10 10 10 9 9 9 9 9 8 9 10 11 12 13 16 18 20 19 13 10 11 16 25 27 16 12 19 22 20 20 19 16 15 15 14 12 13 16 17 17 16 15 12 11 12 14 15 17 18 15 10 9 9 11 13 15 16 15 13 13 10 7 7
20 21 19 18 18 18 18 18 18 18 17 15 13 12 10 10 8 8 8 8 9 10 10 10 10 10 9 8 8 8 8 9 11 12 12 13 16 18 20 19 14 9 11 17 25 27 18 11 16 20 19 17 16 14 14 14 15 16 14 13 15 17 16 12 10 10 13 17 18 17 15 12 9 8 10 12 13 14 15 15 13 12 9 6 7
20 23 22 19 17 16 15 16 15 15 15 13 11 11 9 8 7 7 8 9 9 10 10 10 9 9 9 8 7 7 8 10 12 12 13 14 17 18 20 20 15 9 11 19 25 27 20 11 13 18 17 16 15 14 14 14 13 15 17 14 15 18 14 10 10 12 15 17 17 15 13 11 9 9 11 12 14 14 14 15 14 11 9 7 7
16 19 21 20 19 16 15 17 17 17 16 13 11 10 8 7 7 7 8 9 9 9 9 9 10 9 9 8 7 8 9 11 12 13 14 16 18 19 21 21 15 9 12 20 24 26 22 13 11 14 15 16 16 13 13 13 9 11 15 16 19 21 13 8 10 13 15 18 16 13 12 10 8 10 12 12 15 15 13 15 15 10 7 7 7
13 15 17 19 20 19 18 18 18 16 14 11 9 8 7 8 8 8 9 10 10 10 10 11 11 10 9 9 8 9 11 13 14 16 17 19 19 20 22 22 14 9 14 20 22 26 24 15 10 12 12 15 16 12 12 13 10 10 12 15 21 23 13 5 8 11 14 18 17 12 10 10 8 10 12 13 14 15 13 15 14 9 6 7 8
13 15 17 20 21 20 18 18 16 14 12 10 9 8 8 8 9 9 10 10 10 11 11 11 11 10 10 10 10 12 14 16 18 18 19 21 21 21 24 22 14 11 16 19 20 26 26 17 13 13 12 12 14 12 11 13 12 12 14 16 20 23 16 7 5 7 10 17 18 13 10 9 10 11 12 13 13 13 14 15 12 7 7 8 8
12 14 17 21 22 20 18 17 15 14 13 10 9 9 9 9 9 10 10 11 11 11 11 11 11 11 11 12 13 15 17 18 19 19 20 22 22 22 24 22 14 12 17 18 18 25 26 19 16 16 11 11 14 12 12 13 11 13 18 16 16 19 19 12 6 4 8 15 17 14 10 10 11 12 12 12 13 13 14 14 10 6 7 9 9
12 13 15 19 21 20 18 16 14 15 14 11 10 10 10 10 11 11 11 12 12 11 11 11 12 12 13 15 16 17 17 17 18 19 21 23 22 22 24 22 14 12 18 17 15 22 25 20 20 20 14 12 14 13 13 13 11 15 20 15 8 11 18 18 11 6 9 14 15 12 10 10 11 12 12 12 12 13 15 13 9 7 8 9 9
11 13 14 17 19 20 18 16 14 14 14 14 13 13 13 13 13 13 13 12 12 12 12 12 14 15 16 17 17 16 17 17 18 20 23 23 22 21 23 21 14 13 19 17 12 18 23 18 17 20 17 14 13 12 13 14 11 13 20 15 4 5 16 21 17 12 11 12 12 11 10 11 11 11 11 11 12 14 15 12 8 9 10 9 8
11 13 14 16 18 19 18 16 14 13 14 15 14 14 14 13 12 12 12 12 12 13 15 16 17 18 17 17 16 15 16 18 19 21 23 22 20 21 23 21 14 12 18 18 11 12 18 15 13 16 16 12 12 14 15 14 8 8 16 15 6 4 14 22 21 15 12 12 12 11 10 10 11 10 11 12 14 16 14 10 8 10 11 9 9
11 13 14 15 16 18 18 18 15 13 14 14 13 12 11 11 11 12 13 15 16 18 19 19 19 18 17 16 16 16 17 19 20 22 24 22 20 21 22 21 15 11 16 21 15 9 12 14 14 17 18 15 15 17 16 12 6 5 12 16 10 7 14 21 20 15 13 12 10 9 8 9 10 12 13 14 15 16 14 10 7 9 10 9 9
12 13 14 15 16 17 18 17 15 14 12 11 11 11 11 12 14 16 17 19 20 19 19 18 17 16 16 15 16 17 18 19 21 22 24 22 20 21 22 20 16 10 12 22 21 11 9 12 11 11 15 15 14 14 11 8 7 9 16 20 15 11 14 19 17 13 11 10 9 7 8 11 12 13 16 16 15 15 13 9 7 8 10 11 11
13 13 14 14 15 16 17 16 15 14 12 11 11 13 14 16 17 18 18 18 18 17 16 15 15 15 15 15 16 18 19 21 22 22 23 22 20 22 23 20 16 11 10 19 24 16 10 11 9 6 11 17 18 16 13 13 16 20 23 23 18 13 15 17 14 11 9 9 9 9 10 12 13 14 16 16 14 12 11 9 8 10 12 12 11
13 13 14 14 14 15 16 16 16 15 14 15 15 15 17 17 17 17 17 16 16 15 14 14 15 16 17 17 19 20 21 23 23 21 23 23 20 21 23 21 17 12 9 15 23 19 11 11 10 6 10 21 26 26 24 24 25 25 24 21 17 14 15 14 12 10 10 9 9 9 11 13 14 14 14 14 12 11 10 10 8 9 10 10 10
13 14 14 14 14 15 17 17 18 18 17 17 16 16 16 16 16 16 15 15 14 14 14 16 17 18 20 20 20 21 21 22 22 21 22 23 21 21 22 21 18 14 8 11 21 22 14 11 11 8 10 20 26 25 23 21 20 19 18 16 15 14 15 14 11 10 10 9 9 10 12 13 13 13 13 13 13 12 11 9 7 7 9 10 10
14 14 15 15 15 16 17 18 18 18 18 17 17 17 16 16 15 15 14 15 16 16 17 17 17 17 18 17 17 18 18 20 23 23 22 23 22 21 21 20 17 15 10 9 18 24 17 11 10 10 11 16 20 19 16 15 14 14 14 13 13 13 13 12 10 9 8 9 10 11 14 14 13 14 15 14 12 10 8 8 7 7 8 11 12
14 15 15 16 16 16 17 18 18 18 17 17 16 16 16 15 15 16 16 15 15 14 13 12 11 12 14 14 15 17 19 21 24 25 24 23 21 20 21 20 16 15 12 9 15 24 21 12 10 10 10 11 14 15 15 13 12 12 12 12 12 12 11 10 9 8 9 10 10 12 14 15 14 14 14 12 10 9 7 7 8 8 9 11 14
Height
5690 5688 5685 5683 5681 5679 5676 5674 5672 5671 5669 5667 5665 5662 5660 5657 5654 5651 5648 5645 5642 5640 5638 5636 5633 5631 5629 5627 5624 5622 5619 5617 5615 5612 5610 5607 5603 5600 5597 5594 5591 5588 5585 5583 5582 5580 5576 5574 5572 5570 5568 5566 5564 5561 5558 5556 5554 5552 5551 5549 5548 5546 5544 5542 5540 5540 5540 5539 5537 5536 5534 5531 5530 5529 5529 5528 5527 5526 5526 5525 5523 5520 5520 5520 5521
5686 5683 5681 5679 5677 5675 5673 5670 5668 5666 5664 5661 5659 5656 5654 5651 5648 5645 5642 5639 5635 5632 5630 5629 5626 5623 5621 5619 5616 5614 5611 5608 5606 5603 5601 5599 5595 5592 5588 5585 5582 5578 5575 5572 5571 5569 5566 5563 5561 5559 5557 5555 5553 5551 5548 5545 5543 5541 5540 5539 5537 5536 5534 5531 5529 5529 5529 5528 5527 5526 5524 5521 5519 5519 5519 5518 5515 5514 5514 5514 5513 5510 5510 5510 5511
5682 5679 5677 5675 5673 5671 5669 5666 5664 5661 5659 5656 5653 5650 5647 5644 5641 5637 5634 5631 5628 5625 5622 5620 5618 5615 5612 5610 5608 5605 5602 5598 5596 5594 5592 5590 5588 5584 5580 5576 5573 5569 5565 5562 5560 5558 5555 5553 5550 5548 5546 5544 5542 5540 5538 5535 5532 5530 5528 5527 5526 5525 5524 5521 5519 5518 5518 5517 5516 5516 5514 5512 5509 5508 5508 5507 5505 5503 5502 5503 5502 5500 5500 5500 5501
5678 5675 5673 5671 5668 5666 5663 5661 5658 5656 5653 5650 5647 5643 5640 5637 5634 5631 5627 5625 5622 5618 5615 5612 5610 5607 5603 5601 5598 5596 5592 5589 5586 5583 5580 5579 5577 5574 5571 5567 5564 5560 5556 5552 5549 5546 5544 5541 5539 5537 5535 5533 5531 5529 5527 5524 5522 5519 5517 5516 5515 5514 5513 5511 5508 5507 5507 5506 5505 5505 5504 5503 5501 5498 5497 5496 5495 5493 5491 5491 5491 5490 5490 5491 5492
5673 5671 5669 5666 5664 5661 5658 5655 5652 5649 5647 5643 5640 5637 5633 5630 5627 5623 5620 5617 5614 5611 5608 5604 5601 5598 5595 5592 5588 5586 5583 5579 5576 5573 5569 5566 5564 5562 5560 5557 5554 5551 5547 5543 5539 5536 5533 5530 5527 5525 5523 5521 5519 5517 5516 5513 5510 5508 5507 5505 5503 5502 5501 5500 5498 5497 5496 5495 5495 5494 5493 5493 5492 5489 5488 5486 5484 5483 5482 5480 5480 5480 5480 5481 5482
5669 5666 5664 5661 5658 5655 5652 5649 5645 5643 5640 5637 5633 5630 5626 5623 5619 5616 5612 5609 5605 5602 5598 5595 5591 5588 5585 5582 5579 5576 5573 5569 5566 5563 5560 5556 5554 5552 5549 5546 5543 5540 5536 5533 5529 5525 5522 5518 5515 5513 5511 5509 5507 5505 5504 5502 5499 5497 5495 5494 5492 5491 5489 5489 5488 5485 5485 5486 5485 5483 5482 5482 5482 5480 5479 5477 5475 5472 5471 5470 5469 5470 5471 5472 5473
5665 5662 5659 5656 5653 5650 5646 5643 5639 5636 5633 5630 5626 5622 5619 5615 5611 5608 5604 5601 5596 5593 5589 5586 5582 5578 5575 5572 5569 5565 5562 5559 5555 5552 5549 5546 5544 5541 5539 5537 5533 5529 5526 5522 5518 5514 5510 5507 5503 5500 5498 5496 5493 5492 5492 5490 5487 5485 5483 5482 5481 5480 5478 5478 5477 5474 5474 5475 5474 5473 5472 5471 5471 5470 5469 5468 5467 5464 5460 5459 5459 5460 5461 5463 5463
5660 5657 5654 5650 5647 5644 5641 5637 5633 5630 5627 5623 5620 5616 5612 5608 5604 5600 5596 5592 5589 5585 5582 5578 5574 5570 5566 5562 5559 5555 5552 5550 5546 5542 5539 5535 5532 5529 5527 5525 5523 5519 5515 5511 5507 5503 5498 5494 5491 5487 5485 5483 5480 5478 5478 5477 5475 5473 5471 5470 5469 5468 5467 5467 5466 5463 5463 5463 5462 5462 5462 5461 5460 5460 5459 5458 5458 5457 5453 5448 5448 5450 5452 5453 5454
5654 5651 5648 5644 5641 5638 5634 5630 5627 5623 5620 5617 5613 5609 5605 5601 5597 5592 5588 5584 5580 5577 5574 5570 5567 5563 5559 5554 5551 5547 5542 5539 5536 5532 5528 5525 5521 5517 5513 5512 5510 5507 5504 5500 5495 5491 5486 5481 5477 5474 5471 5469 5467 5465 5464 5463 5462 5460 5458 5457 5456 5456 5455 5454 5455 5453 5452 5451 5450 5451 5452 5451 5450 5449 5449 5448 5447 5448 5447 5442 5438 5440 5443 5443 5444
5647 5644 5641 5637 5634 5630 5627 5623 5620 5616 5613 5610 5605 5601 5597 5593 5589 5585 5581 5576 5572 5567 5564 5561 5557 5554 5551 5546 5542 5538 5533 5530 5526 5522 5518 5513 5510 5506 5502 5498 5496 5493 5491 5488 5483 5478 5473 5468 5464 5461 5457 5454 5452 5451 5449 5448 5447 5446 5445 5444 5444 5444 5443 5442 5443 5442 5441 5440 5439 5439 5440 5440 5440 5440 5439 5438 5437 5437 5438 5436 5432 5431 5433 5434 5435
5641 5637 5634 5630 5626 5623 5619 5615 5612 5608 5605 5601 5596 5592 5589 5585 5581 5577 5573 5569 5564 5559 5555 5551 5547 5543 5540 5536 5532 5528 5523 5519 5515 5511 5507 5502 5498 5494 5490 5485 5482 5479 5477 5474 5470 5464 5459 5455 5451 5448 5443 5439 5437 5435 5434 5432 5432 5432 5431 5430 5430 5432 5431 5429 5430 5431 5430 5429 5428 5428 5429 5429 5430 5430 5429 5428 5428 5427 5427 5427 5425 5423 5425 5425 5426
5633 5630 5626 5622 5618 5615 5611 5607 5604 5600 5596 5592 5588 5584 5581 5578 5574 5570 5566 5562 5557 5552 5547 5543 5538 5533 5528 5524 5521 5517 5513 5508 5504 5500 5495 5490 5486 5482 5477 5473 5468 5465 5462 5460 5457 5450 5444 5441 5438 5434 5429 5425 5422 5419 5418 5417 5416 5416 5416 5416 5416 5418 5419 5418 5417 5419 5419 5418 5417 5417 5418 5418 5419 5419 5419 5418 5419 5418 5417 5418 5417 5415 5417 5417 5417
5626 5622 5618 5614 5610 5606 5603 5599 5596 5591 5587 5584 5581 5577 5574 5570 5566 5563 5559 5554 5550 5545 5540 5534 5530 5524 5518 5513 5509 5505 5501 5497 5493 5489 5484 5478 5473 5469 5465 5460 5455 5451 5447 5444 5441 5435 5430 5426 5422 5418 5415 5410 5407 5404 5402 5401 5400 5400 5401 5401 5402 5404 5406 5406 5405 5407 5407 5407 5407 5406 5407 5408 5408 5408 5408 5408 5409 5408 5408 5409 5409 5408 5408 5409 5408
5619 5615 5611 5607 5603 5599 5596 5592 5587 5583 5579 5575 5572 5569 5565 5561 5556 5552 5549 5545 5540 5536 5532 5527 5521 5515 5509 5503 5498 5493 5489 5485 5481 5476 5471 5466 5461 5456 5452 5447 5442 5437 5432 5428 5424 5419 5414 5411 5406 5402 5398 5394 5391 5388 5386 5385 5384 5384 5385 5386 5389 5391 5392 5393 5394 5394 5396 5396 5396 5396 5396 5397 5398 5397 5397 5398 5398 5399 5399 5400 5400 5401 5401 5401 5400
5613 5610 5605 5601 5597 5593 5589 5584 5579 5575 5571 5567 5564 5560 5555 5551 5546 5541 5537 5534 5529 5525 5521 5517 5512 5507 5500 5494 5488 5482 5477 5473 5468 5463 5458 5453 5448 5443 5439 5434 5428 5423 5418 5413 5407 5402 5397 5394 5390 5386 5382 5378 5375 5372 5370 5369 5368 5369 5370 5371 5374 5377 5379 5380 5381 5382 5384 5385 5385 5385 5386 5387 5388 5387 5387 5388 5388 5389 5390 5390 5392 5393 5393 5393 5393
5608 5604 5600 5595 5592 5587 5582 5577 5572 5568 5564 5560 5556 5551 5546 5542 5537 5533 5528 5524 5520 5515 5510 5505 5501 5497 5492 5486 5480 5473 5467 5462 5458 5453 5447 5441 5435 5430 5426 5422 5416 5410 5405 5399 5392 5387 5382 5378 5374 5370 5367 5363 5359 5356 5354 5353 5353 5353 5355 5357 5359 5362 5365 5368 5369 5370 5373 5374 5374 5375 5376 5377 5377 5377 5378 5378 5379 5379 5380 5381 5383 5385 5385 5385 5385
5602 5597 5593 5589 5585 5580 5575 5570 5566 5561 5557 5553 5548 5543 5538 5533 5529 5525 5520 5515 5509 5504 5499 5494 5489 5484 5480 5475 5469 5463 5457 5452 5448 5443 5438 5432 5426 5420 5413 5409 5405 5398 5392 5386 5379 5373 5368 5362 5358 5355 5351 5346 5343 5340 5338 5337 5337 5338 5340 5343 5345 5348 5351 5355 5358 5359 5361 5362 5363 5365 5366 5367 5367 5368 5369 5369 5369 5370 5371 5373 5375 5376 5377 5378 5378
5594 5589 5585 5581 5576 5572 5568 5563 5558 5553 5549 5545 5540 5535 5530 5524 5519 5514 5510 5505 5499 5494 5488 5483 5477 5471 5467 5463 5457 5452 5445 5440 5436 5431 5426 5422 5417 5411 5402 5397 5393 5386 5380 5374 5367 5361 5355 5348 5343 5339 5334 5329 5325 5322 5320 5319 5321 5323 5326 5329 5332 5334 5337 5342 5346 5348 5350 5352 5353 5355 5356 5358 5358 5358 5359 5360 5361 5362 5363 5364 5366 5368 5369 5371 5371
5588 5584 5579 5574 5570 5565 5561 5556 5551 5546 5542 5537 5532 5526 5521 5515 5510 5504 5499 5494 5489 5483 5478 5473 5467 5461 5456 5451 5446 5440 5434 5429 5424 5419 5414 5409 5404 5399 5391 5384 5380 5374 5367 5361 5355 5348 5342 5335 5328 5322 5316 5310 5305 5303 5301 5301 5303 5307 5311 5316 5319 5321 5324 5330 5334 5337 5339 5341 5343 5345 5346 5348 5348 5349 5350 5351 5353 5354 5355 5356 5358 5359 5361 5363 5363
5581 5577 5573 5568 5563 5558 5553 5547 5543 5538 5534 5528 5522 5517 5511 5505 5500 5495 5489 5484 5478 5472 5467 5463 5459 5452 5446 5440 5435 5429 5423 5417 5412 5406 5401 5396 5391 5387 5380 5372 5367 5362 5355 5349 5342 5335 5329 5322 5315 5308 5300 5293 5286 5283 5283 5284 5287 5292 5297 5302 5306 5309 5313 5318 5322 5325 5328 5331 5334 5336 5337 5338 5339 5340 5342 5343 5345 5347 5348 5349 5350 5351 5353 5354 5356
5572 5569 5564 5560 5555 5549 5544 5539 5534 5528 5523 5517 5511 5506 5500 5495 5490 5484 5479 5474 5468 5463 5457 5453 5448 5442 5436 5430 5424 5418 5412 5406 5400 5395 5389 5384 5379 5375 5369 5363 5357 5352 5345 5338 5331 5324 5317 5309 5301 5294 5286 5278 5272 5268 5268 5270 5274 5280 5285 5290 5294 5297 5303 5308 5311 5314 5318 5321 5324 5327 5329 5329 5330 5332 5334 5335 5337 5339 5340 5341 5343 5344 5345 5346 5348
5565 5560 5556 5551 5546 5540 5534 5530 5524 5518 5513 5507 5501 5496 5490 5485 5479 5474 5469 5464 5458 5453 5448 5442 5437 5432 5425 5419 5413 5408 5402 5397 5391 5386 5380 5374 5369 5364 5359 5353 5348 5341 5334 5327 5320 5312 5305 5298 5289 5281 5274 5267 5261 5258 5257 5259 5264 5270 5275 5279 5283 5288 5293 5298 5301 5305 5308 5311 5314 5317 5320 5321 5322 5324 5326 5327 5329 5331 5332 5334 5336 5337 5338 5339 5341
5558 5553 5548 5542 5536 5530 5525 5520 5514 5509 5503 5497 5492 5486 5481 5475 5469 5464 5459 5454 5447 5441 5436 5431 5426 5421 5416 5409 5403 5398 5393 5388 5382 5377 5371 5366 5359 5353 5348 5342 5337 5330 5323 5316 5309 5301 5294 5287 5279 5272 5264 5257 5252 5249 5248 5251 5257 5262 5266 5270 5274 5279 5284 5288 5292 5296 5299 5301 5305 5308 5311 5313 5314 5316 5318 5320 5322 5323 5325 5327 5328 5330 5331 5332 5334
5550 5544 5539 5533 5527 5521 5516 5511 5506 5501 5494 5488 5483 5477 5471 5465 5459 5453 5448 5443 5437 5431 5426 5420 5415 5411 5406 5400 5394 5389 5384 5378 5373 5367 5362 5356 5350 5343 5337 5331 5325 5318 5312 5305 5298 5291 5284 5277 5270 5263 5257 5250 5245 5242 5242 5246 5251 5255 5259 5262 5266 5271 5275 5279 5283 5287 5290 5293 5296 5299 5302 5304 5306 5309 5311 5313 5314 5316 5317 5319 5321 5323 5325 5326 5327
5541 5535 5530 5524 5518 5513 5507 5501 5496 5491 5485 5478 5473 5467 5462 5455 5449 5442 5437 5433 5427 5421 5415 5410 5405 5400 5396 5391 5385 5379 5374 5368 5363 5358 5352 5346 5340 5333 5326 5320 5313 5307 5301 5294 5288 5281 5274 5268 5262 5256 5249 5244 5239 5236 5237 5241 5245 5249 5252 5255 5259 5263 5267 5271 5275 5278 5282 5285 5288 5291 5293 5296 5299 5302 5304 5306 5307 5309 5310 5312 5314 5316 5318 5319 5321
5532 5526 5521 5514 5508 5503 5497 5491 5485 5480 5474 5468 5462 5457 5451 5446 5439 5432 5426 5421 5417 5411 5405 5400 5395 5390 5385 5380 5375 5369 5363 5358 5353 5348 5342 5336 5330 5323 5316 5310 5303 5297 5291 5285 5279 5273 5266 5260 5255 5248 5243 5239 5235 5232 5234 5238 5241 5244 5246 5249 5252 5256 5259 5263 5267 5270 5274 5277 5280 5283 5286 5288 5292 5295 5297 5299 5301 5302 5304 5305 5307 5308 5310 5313 5315
5522 5516 5510 5504 5498 5492 5486 5481 5475 5470 5464 5457 5451 5445 5440 5436 5430 5424 5417 5411 5406 5402 5396 5390 5385 5379 5375 5369 5364 5359 5354 5348 5344 5338 5332 5326 5320 5313 5307 5301 5295 5289 5283 5277 5271 5265 5259 5254 5248 5242 5237 5234 5231 5230 5231 5234 5236 5238 5241 5243 5246 5249 5252 5256 5260 5263 5266 5270 5273 5276 5279 5282 5285 5287 5289 5292 5294 5296 5297 5299 5300 5301 5304 5307 5309
5514 5507 5500 5494 5488 5483 5477 5471 5465 5459 5454 5448 5442 5436 5429 5424 5419 5413 5407 5402 5397 5392 5387 5381 5375 5370 5365 5360 5355 5350 5344 5339 5334 5328 5322 5316 5311 5305 5298 5292 5286 5281 5275 5270 5264 5258 5253 5248 5242 5237 5232 5229 5228 5228 5229 5230 5231 5234 5235 5237 5240 5243 5246 5250 5253 5256 5260 5263 5266 5269 5272 5275 5278 5280 5282 5285 5287 5289 5291 5292 5293 5295 5298 5300 5303
5505 5498 5492 5485 5479 5473 5467 5461 5455 5448 5442 5438 5432 5426 5420 5414 5409 5403 5397 5391 5387 5382 5377 5372 5367 5361 5356 5351 5346 5341 5335 5330 5325 5319 5313 5307 5301 5296 5290 5284 5278 5273 5268 5262 5257 5251 5247 5242 5237 5232 5228 5226 5225 5225 5225 5225 5227 5229 5230 5232 5234 5237 5240 5243 5246 5250 5253 5257 5260 5263 5266 5269 5271 5273 5275 5278 5281 5283 5285 5286 5287 5289 5292 5295 5297
5495 5488 5482 5475 5469 5462 5455 5449 5442 5436 5430 5425 5421 5415 5410 5404 5399 5393 5387 5382 5377 5372 5368 5362 5357 5352 5347 5342 5337 5332 5326 5321 5315 5309 5303 5297 5292 5287 5282 5276 5270 5265 5260 5256 5250 5245 5240 5236 5232 5227 5224 5222 5221 5221 5221 5221 5223 5224 5225 5227 5229 5232 5234 5237 5240 5244 5248 5251 5253 5256 5259 5262 5264 5267 5269 5272 5274 5276 5278 5279 5281 5284 5286 5289 5291
5485 5478 5471 5464 5457 5451 5444 5437 5431 5425 5419 5413 5409 5405 5399 5394 5389 5383 5378 5373 5367 5363 5359 5353 5348 5343 5338 5333 5328 5323 5317 5311 5305 5299 5294 5288 5283 5278 5274 5269 5264 5258 5253 5248 5243 5238 5234 5230 5226 5223 5220 5218 5217 5216 5216 5217 5218 5219 5220 5222 5224 5226 5229 5231 5235 5238 5242 5245 5247 5250 5253 5256 5259 5261 5263 5266 5268 5270 5271 5273 5275 5278 5281 5283 5286
5475 5468 5461 5454 5448 5441 5434 5428 5421 5415 5409 5404 5399 5395 5390 5385 5380 5374 5369 5364 5359 5354 5350 5345 5339 5334 5329 5324 5319 5314 5309 5303 5296 5291 5285 5280 5275 5270 5265 5261 5257 5252 5247 5242 5237 5232 5229 5225 5221 5218 5215 5214 5213 5212 5213 5213 5214 5215 5216 5218 5220 5221 5224 5227 5230 5233 5236 5239 5242 5244 5248 5251 5253 5255 5257 5260 5262 5263 5265 5267 5270 5273 5275 5278 5280
5464 5458 5451 5445 5439 5432 5425 5417 5411 5405 5400 5394 5388 5384 5380 5375 5370 5366 5361 5357 5351 5346 5341 5336 5331 5325 5319 5314 5309 5304 5300 5295 5289 5283 5278 5272 5267 5263 5257 5253 5249 5245 5240 5235 5230 5226 5223 5220 5216 5213 5211 5210 5209 5208 5209 5209 5210 5210 5212 5214 5216 5217 5219 5223 5226 5228 5231 5233 5236 5239 5242 5245 5247 5249 5252 5254 5255 5257 5259 5261 5264 5267 5269 5272 5275
5457 5450 5444 5437 5429 5422 5415 5408 5401 5395 5390 5385 5379 5374 5370 5365 5360 5356 5352 5347 5342 5336 5331 5326 5322 5316 5311 5306 5301 5295 5290 5286 5281 5276 5271 5265 5260 5255 5250 5245 5241 5237 5233 5228 5224 5221 5218 5215 5212 5209 5207 5206 5205 5205 5205 5206 5207 5207 5208 5210 5213 5214 5215 5218 5221 5223 5226 5228 5231 5233 5236 5239 5241 5244 5247 5248 5249 5251 5253 5256 5258 5261 5264 5267 5269
5447 5441 5434 5427 5419 5412 5406 5400 5393 5387 5382 5376 5371 5366 5362 5356 5351 5346 5342 5337 5331 5326 5321 5316 5311 5306 5301 5297 5292 5287 5282 5277 5272 5267 5262 5257 5251 5247 5242 5237 5233 5230 5226 5222 5218 5215 5212 5209 5207 5205 5203 5202 5201 5201 5201 5202 5203 5204 5205 5206 5209 5211 5212 5213 5216 5218 5221 5223 5226 5228 5231 5234 5236 5239 5241 5242 5244 5245 5248 5250 5253 5256 5258 5261 5264
5436 5429 5422 5416 5409 5401 5394 5389 5384 5378 5373 5368 5363 5358 5353 5348 5342 5337 5332 5327 5322 5317 5312 5307 5302 5297 5292 5287 5282 5278 5273 5268 5264 5259 5253 5248 5243 5238 5234 5229 5226 5223 5219 5215 5211 5208 5206 5204 5202 5200 5199 5198 5197 5197 5197 5198 5199 5200 5201 5202 5204 5207 5208 5209 5211 5214 5216 5218 5221 5224 5226 5229 5231 5233 5235 5236 5238 5240 5242 5245 5248 5250 5253 5256 5258
5429 5420 5411 5404 5399 5392 5385 5378 5373 5368 5364 5359 5355 5349 5344 5339 5334 5329 5324 5319 5314 5309 5303 5298 5293 5287 5283 5278 5272 5268 5264 5259 5255 5250 5245 5240 5235 5230 5226 5221 5218 5215 5212 5209 5206 5202 5200 5199 5198 5196 5195 5194 5193 5193 5193 5194 5195 5196 5197 5198 5200 5202 5204 5206 5207 5209 5212 5214 5216 5219 5221 5224 5226 5228 5230 5231 5232 5235 5237 5240 5243 5246 5248 5250 5252
5422 5415 5407 5398 5391 5385 5379 5372 5366 5360 5355 5350 5346 5341 5336 5331 5326 5322 5317 5312 5307 5301 5295 5290 5285 5280 5275 5270 5264 5259 5255 5251 5246 5241 5236 5232 5227 5222 5218 5214 5211 5208 5205 5202 5199 5197 5195 5194 5192 5191 5190 5189 5189 5189 5189 5190 5191 5191 5193 5194 5196 5198 5200 5202 5203 5205 5207 5210 5212 5214 5217 5219 5221 5223 5224 5226 5227 5230 5232 5235 5238 5241 5243 5245 5247
5417 5410 5402 5394 5386 5379 5373 5366 5360 5355 5349 5343 5338 5333 5328 5323 5318 5313 5309 5304 5299 5293 5288 5282 5277 5272 5267 5261 5256 5251 5246 5242 5237 5232 5227 5223 5218 5214 5210 5207 5204 5201 5199 5196 5193 5191 5189 5188 5187 5186 5186 5185 5185 5184 5185 5185 5187 5187 5189 5190 5192 5193 5196 5197 5199 5201 5203 5205 5208 5210 5212 5215 5217 5218 5219 5221 5222 5225 5228 5231 5233 5236 5238 5240 5242
5414 5405 5397 5389 5381 5373 5367 5361 5355 5349 5343 5337 5332 5327 5321 5315 5310 5305 5301 5296 5290 5285 5279 5274 5269 5263 5258 5252 5247 5241 5236 5232 5227 5223 5219 5214 5209 5205 5202 5199 5197 5195 5192 5189 5187 5185 5183 5182 5182 5181 5180 5180 5180 5180 5180 5181 5183 5184 5184 5186 5188 5189 5191 5193 5195 5197 5199 5201 5203 5205 5208 5210 5212 5213 5215 5216 5217 5220 5223 5226 5229 5231 5233 5235 5238
5404 5397 5391 5383 5376 5368 5360 5353 5348 5343 5337 5332 5326 5321 5315 5309 5303 5298 5292 5287 5282 5276 5270 5265 5260 5254 5249 5243 5237 5231 5227 5222 5218 5214 5210 5205 5201 5197 5195 5192 5191 5188 5186 5183 5181 5179 5178 5177 5176 5176 5175 5175 5175 5175 5176 5177 5179 5180 5180 5182 5184 5185 5187 5189 5190 5192 5194 5197 5199 5201 5203 5205 5207 5208 5210 5211 5213 5215 5219 5221 5224 5226 5228 5230 5233
5397 5389 5383 5377 5370 5363 5355 5347 5341 5335 5329 5324 5318 5313 5307 5301 5295 5290 5284 5279 5273 5267 5261 5255 5250 5245 5239 5233 5228 5222 5217 5213 5208 5205 5201 5197 5193 5190 5187 5185 5184 5182 5180 5178 5176 5174 5173 5172 5171 5170 5170 5170 5171 5171 5172 5173 5174 5175 5176 5178 5180 5181 5182 5184 5186 5188 5190 5192 5194 5196 5198 5201 5202 5204 5205 5206 5208 5211 5214 5217 5219 5221 5223 5226 5228
5392 5384 5376 5369 5362 5355 5348 5341 5334 5328 5321 5315 5310 5304 5298 5292 5287 5281 5276 5270 5264 5258 5252 5246 5241 5235 5229 5224 5219 5213 5208 5203 5199 5196 5192 5189 5186 5182 5180 5179 5177 5176 5174 5172 5171 5169 5168 5167 5166 5166 5166 5166 5166 5167 5168 5169 5170 5171 5172 5174 5176 5177 5178 5180 5181 5183 5185 5188 5190 5192 5194 5196 5197 5199 5200 5201 5203 5206 5210 5213 5215 5217 5219 5221 5223
5386 5378 5369 5361 5354 5347 5341 5333 5326 5319 5313 5307 5301 5296 5290 5284 5278 5273 5268 5262 5256 5250 5243 5238 5232 5226 5221 5215 5210 5205 5200 5195 5191 5187 5184 5181 5178 5175 5173 5172 5171 5170 5169 5167 5166 5165 5164 5163 5162 5162 5162 5162 5162 5163 5163 5165 5166 5167 5168 5169 5171 5173 5174 5175 5177 5179 5181 5183 5185 5188 5190 5191 5192 5193 5195 5197 5199 5202 5206 5209 5212 5213 5214 5216 5219
5379 5371 5362 5354 5347 5340 5333 5326 5318 5311 5305 5298 5292 5286 5281 5276 5269 5263 5258 5253 5247 5241 5234 5229 5223 5218 5212 5207 5202 5197 5192 5187 5183 5179 5177 5174 5171 5169 5167 5166 5165 5164 5163 5162 5161 5160 5159 5159 5158 5158 5158 5158 5158 5158 5159 5161 5161 5162 5164 5165 5167 5168 5170 5171 5173 5175 5177 5179 5181 5183 5185 5186 5188 5189 5191 5193 5196 5198 5201 5205 5207 5209 5210 5211 5214
5371 5363 5355 5348 5340 5333 5326 5319 5312 5304 5297 5291 5283 5277 5271 5266 5260 5254 5249 5243 5237 5232 5225 5220 5215 5209 5204 5199 5194 5190 5185 5180 5176 5172 5169 5166 5164 5162 5160 5159 5158 5158 5157 5156 5155 5155 5154 5154 5153 5153 5153 5153 5154 5154 5155 5156 5157 5158 5159 5160 5162 5164 5165 5167 5169 5171 5173 5175 5177 5179 5180 5182 5184 5185 5187 5190 5192 5194 5197 5200 5202 5204 5205 5207 5208
5363 5355 5347 5340 5332 5325 5318 5312 5305 5297 5290 5283 5276 5268 5262 5256 5250 5245 5239 5234 5228 5222 5217 5211 5206 5201 5196 5191 5186 5182 5177 5173 5169 5165 5161 5159 5156 5155 5154 5153 5152 5152 5151 5150 5150 5149 5149 5149 5149 5149 5149 5149 5149 5149 5150 5151 5152 5153 5154 5155 5157 5159 5161 5163 5165 5166 5168 5170 5172 5174 5176 5178 5180 5182 5184 5186 5188 5190 5193 5195 5198 5200 5201 5202 5203
5356 5347 5339 5331 5324 5317 5309 5302 5296 5289 5282 5275 5268 5261 5254 5247 5241 5236 5230 5226 5220 5214 5208 5203 5198 5193 5188 5183 5178 5173 5169 5165 5161 5157 5154 5151 5150 5148 5147 5146 5146 5146 5146 5145 5144 5144 5144 5144 5144 5144 5144 5144 5144 5144 5145 5146 5147 5148 5150 5151 5153 5155 5157 5159 5161 5163 5164 5166 5168 5170 5172 5174 5176 5178 5180 5182 5184 5186 5189 5191 5193 5195 5197 5198 5199
5349 5341 5332 5324 5316 5309 5301 5294 5287 5280 5273 5267 5260 5253 5246 5239 5233 5227 5222 5217 5212 5207 5200 5195 5189 5185 5180 5175 5170 5165 5161 5157 5154 5150 5147 5144 5142 5142 5141 5140 5140 5140 5140 5139 5139 5139 5139 5140 5140 5140 5140 5140 5139 5140 5141 5142 5143 5144 5146 5148 5150 5152 5153 5155 5157 5159 5160 5162 5164 5166 5168 5170 5172 5174 5176 5178 5180 5183 5185 5187 5189 5191 5193 5194 5195
5343 5334 5326 5317 5308 5300 5293 5286 5279 5272 5265 5259 5252 5245 5238 5231 5225 5219 5213 5208 5204 5199 5193 5187 5181 5176 5171 5167 5162 5157 5153 5149 5146 5143 5140 5137 5135 5134 5134 5134 5133 5134 5134 5134 5134 5134 5134 5135 5135 5136 5136 5136 5136 5136 5137 5138 5140 5141 5143 5145 5146 5148 5150 5152 5153 5155 5156 5158 5160 5162 5164 5166 5168 5170 5172 5174 5176 5179 5180 5182 5184 5186 5188 5190 5191
5337 5328 5320 5311 5302 5294 5286 5278 5271 5264 5257 5251 5244 5238 5231 5224 5218 5211 5205 5199 5194 5190 5185 5179 5173 5168 5163 5158 5154 5149 5145 5142 5138 5135 5133 5131 5129 5128 5127 5128 5128 5128 5128 5129 5129 5129 5129 5130 5131 5131 5132 5132 5132 5133 5134 5135 5137 5138 5140 5141 5143 5144 5146 5148 5150 5152 5153 5154 5156 5158 5160 5162 5164 5166 5168 5170 5172 5174 5176 5178 5181 5183 5184 5186 5188